User: anonymous   Login
Location: Unspecified
(0.0000°N, 0.0000°E)
Time: 03:44:28
(UTC+00:00)
Language:

XW-2D - Orbit

View from above orbital plane
View from above orbital plane
View from above satellite
View from above satellite

Ground track
Ground track

The orbit data is extracted from the following two-line orbital elements,

1 40907U 15049J   18017.83494766  .00000628  00000-0  36958-4 0  9994
2 40907  97.4549  23.8431 0014318 182.6437 177.4722 15.15112524128737
Epoch (UTC): 17 January 2018 20:02:19
Eccentricity: 0.0014318
inclination: 97.4549°
perigee height: 511 km
apogee height: 530 km
right ascension of ascending node: 23.8431°
argument of perigee: 182.6437°
revolutions per day: 15.15112524
mean anomaly at epoch: 177.4722°
orbit number at epoch: 12873

The dashed part of the orbit path shows where the satellite is in the earth's shadow,  

DLR